Cold Bay, AK

10:01 PM AKDT on April 23, 2017 (GMT -0800)
Cold Bay

Weather History for PACD - January, 2013

Change the Weather History Date:

Friday, January 25, 2013

  Actual Average Record
Temperature  
Mean Temperature 31 °F 28 °F  
Max Temperature 33 °F 33 °F 48 °F (1963)
Min Temperature 29 °F 23 °F -5 °F (1956)
Degree Days  
Heating Degree Days 34 37  
Month to date heating degree days 785 917  
Since 1 July heating degree days 5214 4988  
Cooling Degree Days 0 0  
Month to date cooling degree days 0 0  
Year to date cooling degree days 0 0  
Moisture  
Dew Point 27 °F    
Average Humidity 84    
Maximum Humidity 92    
Minimum Humidity 70    
Precipitation  
Precipitation T in 0.10 in 1.17 in (1975)
Month to date precipitation 2.52 2.56  
Year to date precipitation 2.52 2.56  
Snow  
Snow T in 0.50 in 2.80 in (1966)
Month to date snowfall 3.2 11.5  
Since 1 July snowfall 25.6 36.7  
Snow Depth T in    
Sea Level Pressure  
Sea Level Pressure 29.86 in    
Wind  
Wind Speed 7 mph (NW)    
Max Wind Speed 18 mph    
Max Gust Speed 21 mph    
Visibility 7 miles    
Events Snow    
T = Trace of Precipitation, MM = Missing Value Source: NWS Daily Summary

Daily Weather History Graph

Daily Weather History Graph

Search for Another Location

Airport or City:

Trip Planner

Search our weather history database for the weather conditions in past years. The results will help you decide how hot, cold, wet, or windy it might be!

Date:

Astronomy

Jan. 25, 2013 Rise Set
Actual Time 9:53 AM AKST 6:13 PM AKST
Civil Twilight 9:12 AM AKST 6:55 PM AKST
Nautical Twilight 8:27 AM AKST 7:40 PM AKST
Astronomical Twilight 7:44 AM AKST 8:23 PM AKST
Moon 5:24 PM AKST (1/25) 8:41 AM AKST (1/25)
Length of Visible Light 9h 43m
Length of Day
8h 20m
Waxing Gibbous, 98% of the Moon is Illuminated
Jan 25
Waxing Gibbous
Jan 26
Full
Feb 3
Last Quarter
Feb 9
New
Feb 17
First Quarter

Hourly Weather History & Observations

Time (AKST) Temp. Windchill Dew Point Humidity Pressure Visibility Wind Dir Wind Speed Gust Speed Precip Events Conditions
12:53 AM 30.0 °F 19.5 °F 27.0 °F 88% 29.79 in 10.0 mi NW 13.8 mph - 0.00 in   Overcast
1:53 AM 30.0 °F 20.5 °F 27.0 °F 88% 29.80 in 4.0 mi WNW 11.5 mph - 0.00 in Snow Light Snow
2:03 AM 30.2 °F 21.3 °F 26.6 °F 86% 29.80 in 4.0 mi NW 10.4 mph - 0.00 in Snow Light Snow
3:53 AM 30.0 °F 19.1 °F 26.1 °F 85% 29.81 in 6.0 mi WNW 15.0 mph - 0.00 in Snow Light Snow
4:41 AM 30.2 °F 20.8 °F 26.6 °F 86% 29.81 in 5.0 mi WNW 11.5 mph - 0.00 in Snow Light Snow
4:53 AM 30.0 °F 19.5 °F 27.0 °F 88% 29.82 in 5.0 mi NW 13.8 mph - 0.00 in Snow Light Snow
5:53 AM 30.0 °F 18.7 °F 26.1 °F 85% 29.82 in 10.0 mi WNW 16.1 mph - 0.00 in   Overcast
6:23 AM 30.2 °F 22.6 °F 26.6 °F 86% 29.82 in 10.0 mi NW 8.1 mph - 0.00 in   Overcast
6:45 AM 30.2 °F 20.8 °F 26.6 °F 86% 29.83 in 2.5 mi WNW 11.5 mph - 0.00 in Snow Light Snow
6:51 AM 30.2 °F 21.3 °F 26.6 °F 86% 29.83 in 1.5 mi WNW 10.4 mph - 0.00 in Snow Light Snow
6:53 AM 30.0 °F 21.7 °F 27.0 °F 88% 29.83 in 1.5 mi WNW 9.2 mph - 0.00 in Snow Light Snow
6:58 AM 30.2 °F 21.9 °F 26.6 °F 86% 29.83 in 2.0 mi WNW 9.2 mph - 0.00 in Snow Light Snow
7:07 AM 30.2 °F 23.4 °F 26.6 °F 86% 29.83 in 5.0 mi WNW 6.9 mph - 0.00 in Snow Light Snow
7:18 AM 30.2 °F 21.9 °F 26.6 °F 86% 29.83 in 9.0 mi WNW 9.2 mph - 0.00 in   Overcast
7:53 AM 30.0 °F 20.0 °F 27.0 °F 88% 29.84 in 5.0 mi WNW 12.7 mph - 0.00 in Snow Light Snow
8:53 AM 30.0 °F 21.1 °F 26.1 °F 85% 29.85 in 7.0 mi WNW 10.4 mph - 0.00 in   Overcast
9:53 AM 30.0 °F 22.4 °F 27.0 °F 88% 29.86 in 6.0 mi WNW 8.1 mph - 0.00 in Snow Light Snow
10:53 AM 30.0 °F 23.2 °F 26.1 °F 85% 29.86 in 10.0 mi NNW 6.9 mph - 0.00 in   Overcast
11:53 AM 32.0 °F 28.7 °F 27.0 °F 82% 29.87 in 10.0 mi North 3.5 mph - N/A   Overcast
12:53 PM 32.0 °F 26.4 °F 27.0 °F 82% 29.89 in 9.0 mi West 5.8 mph - 0.00 in Snow Light Snow
1:53 PM 32.0 °F 27.5 °F 28.0 °F 85% 29.89 in 9.0 mi West 4.6 mph - 0.00 in Snow Light Snow
2:53 PM 33.1 °F - 27.0 °F 78% 29.88 in 10.0 mi Calm Calm - 0.00 in   Overcast
3:22 PM 32.0 °F 28.7 °F 26.6 °F 80% 29.86 in 10.0 mi NNE 3.5 mph - N/A   Overcast
3:45 PM 32.0 °F 26.4 °F 26.6 °F 80% 29.87 in 3.0 mi North 5.8 mph - 0.00 in Snow Light Snow
3:53 PM 32.0 °F 26.4 °F 27.0 °F 82% 29.87 in 5.0 mi NNE 5.8 mph - 0.00 in Snow Light Snow
4:18 PM 32.0 °F 26.4 °F 28.4 °F 87% 29.86 in 10.0 mi NNE 5.8 mph - 0.00 in   Overcast
4:53 PM 32.0 °F 28.7 °F 28.0 °F 85% 29.87 in 10.0 mi NNE 3.5 mph - 0.00 in   Overcast
5:53 PM 32.0 °F - 28.0 °F 85% 29.90 in 10.0 mi Calm Calm - N/A   Overcast
6:53 PM 33.1 °F - 28.9 °F 85% 29.89 in 10.0 mi Calm Calm - N/A   Overcast
7:53 PM 34.0 °F - 28.0 °F 79% 29.91 in 10.0 mi Calm Calm - N/A   Overcast
8:53 PM 34.0 °F 28.0 °F 28.9 °F 82% 29.92 in 10.0 mi West 6.9 mph - N/A   Overcast
9:14 PM 33.8 °F 28.6 °F 28.4 °F 81% 29.91 in 6.0 mi NW 5.8 mph - 0.00 in Snow Light Snow
9:41 PM 33.8 °F 27.7 °F 30.2 °F 87% 29.91 in 3.0 mi NNW 6.9 mph - 0.00 in Snow Light Snow
9:53 PM 33.1 °F 27.7 °F 30.0 °F 89% 29.93 in 4.0 mi NW 5.8 mph - 0.00 in Snow Light Snow
10:53 PM 32.0 °F 24.8 °F 30.0 °F 92% 29.93 in 5.0 mi NNE 8.1 mph - 0.00 in Snow Light Snow
11:53 PM 32.0 °F 27.5 °F 30.0 °F 92% 29.94 in 10.0 mi NNE 4.6 mph - 0.00 in   Overcast